TimeCST,TemperatureF,Dew PointF,Humidity,Sea Level PressureIn,VisibilityMPH,Wind Direction,Wind SpeedMPH,Gust SpeedMPH,PrecipitationIn,Events,Conditions,WindDirDegrees,DateUTC
12:15 AM,48.2,42.8,82,30.14,10.0,Calm,Calm,-,N/A,,Clear,0,2012-11-04 05:15:00
12:35 AM,44.6,41.0,87,30.15,10.0,Calm,Calm,-,N/A,,Clear,0,2012-11-04 05:35:00
12:55 AM,48.2,42.8,82,30.14,10.0,Calm,Calm,-,N/A,,Clear,0,2012-11-04 05:55:00
1:15 AM,51.8,42.8,71,30.14,10.0,Calm,Calm,-,N/A,,Clear,0,2012-11-04 06:15:00
1:35 AM,51.8,42.8,71,30.15,10.0,NNE,4.6,-,N/A,,Clear,20,2012-11-04 06:35:00
1:55 AM,53.6,42.8,67,30.16,10.0,Calm,Calm,-,N/A,,Clear,0,2012-11-04 06:55:00
1:15 AM,51.8,42.8,71,30.16,10.0,Calm,Calm,-,N/A,,Clear,0,2012-11-04 07:15:00
1:35 AM,48.2,42.8,82,30.16,10.0,Calm,Calm,-,N/A,,Clear,0,2012-11-04 07:35:00
1:55 AM,51.8,42.8,71,30.16,10.0,Calm,Calm,-,N/A,,Clear,0,2012-11-04 07:55:00
2:15 AM,48.2,41.0,76,30.16,10.0,Calm,Calm,-,N/A,,Clear,0,2012-11-04 08:15:00
2:35 AM,48.2,41.0,76,30.16,10.0,Calm,Calm,-,N/A,,Clear,0,2012-11-04 08:35:00
2:55 AM,42.8,39.2,87,30.17,10.0,Calm,Calm,-,N/A,,Clear,0,2012-11-04 08:55:00
3:15 AM,44.6,41.0,87,30.17,10.0,Calm,Calm,-,N/A,,Clear,0,2012-11-04 09:15:00
3:35 AM,42.8,41.0,93,30.17,10.0,Calm,Calm,-,N/A,,Clear,0,2012-11-04 09:35:00
3:55 AM,42.8,41.0,93,30.17,10.0,Calm,Calm,-,N/A,,Clear,0,2012-11-04 09:55:00
4:15 AM,41.0,39.2,93,30.17,10.0,Calm,Calm,-,N/A,,Clear,0,2012-11-04 10:15:00
4:35 AM,41.0,41.0,100,30.18,10.0,Calm,Calm,-,N/A,,Clear,0,2012-11-04 10:35:00
4:55 AM,42.8,39.2,87,30.18,10.0,Calm,Calm,-,N/A,,Clear,0,2012-11-04 10:55:00
5:15 AM,41.0,39.2,93,30.18,10.0,Calm,Calm,-,N/A,,Clear,0,2012-11-04 11:15:00
5:35 AM,42.8,41.0,93,30.18,10.0,Calm,Calm,-,N/A,,Clear,0,2012-11-04 11:35:00
5:55 AM,42.8,41.0,93,30.18,10.0,Calm,Calm,-,N/A,,Clear,0,2012-11-04 11:55:00
6:15 AM,44.6,41.0,87,30.18,10.0,Calm,Calm,-,N/A,,Clear,0,2012-11-04 12:15:00
6:35 AM,46.4,41.0,81,30.19,10.0,Calm,Calm,-,N/A,,Clear,0,2012-11-04 12:35:00
6:55 AM,42.8,39.2,87,30.19,10.0,Calm,Calm,-,N/A,,Clear,0,2012-11-04 12:55:00
7:15 AM,42.8,41.0,93,30.20,10.0,Calm,Calm,-,N/A,,Clear,0,2012-11-04 13:15:00
7:35 AM,46.4,42.8,87,30.20,10.0,Calm,Calm,-,N/A,,Clear,0,2012-11-04 13:35:00
7:55 AM,50.0,42.8,76,30.20,10.0,Calm,Calm,-,N/A,,Clear,0,2012-11-04 13:55:00
8:15 AM,51.8,44.6,76,30.20,10.0,Calm,Calm,-,N/A,,Clear,0,2012-11-04 14:15:00
8:35 AM,51.8,42.8,71,30.21,10.0,Calm,Calm,-,N/A,,Clear,0,2012-11-04 14:35:00
8:55 AM,53.6,44.6,72,30.20,10.0,Calm,Calm,-,N/A,,Clear,0,2012-11-04 14:55:00
9:15 AM,55.4,46.4,72,30.20,10.0,Calm,Calm,-,N/A,,Clear,0,2012-11-04 15:15:00
9:35 AM,55.4,44.6,67,30.20,10.0,Calm,Calm,-,N/A,,Clear,0,2012-11-04 15:35:00
9:55 AM,59.0,46.4,63,30.21,10.0,SW,3.5,-,N/A,,Clear,220,2012-11-04 15:55:00
10:15 AM,59.0,44.6,59,30.21,10.0,South,3.5,-,N/A,,Clear,180,2012-11-04 16:15:00
10:35 AM,60.8,46.4,59,30.20,10.0,Calm,Calm,-,N/A,,Clear,0,2012-11-04 16:35:00
10:55 AM,60.8,46.4,59,30.20,10.0,Calm,Calm,-,N/A,,Clear,0,2012-11-04 16:55:00
11:15 AM,60.8,46.4,59,30.19,10.0,Calm,Calm,-,N/A,,Clear,0,2012-11-04 17:15:00
11:35 AM,62.6,46.4,55,30.18,10.0,Calm,Calm,-,N/A,,Clear,0,2012-11-04 17:35:00
11:55 AM,64.4,44.6,49,30.17,10.0,ENE,5.8,-,N/A,,Clear,70,2012-11-04 17:55:00
12:15 PM,64.4,46.4,52,30.16,10.0,Calm,Calm,-,N/A,,Clear,0,2012-11-04 18:15:00
12:35 PM,66.2,46.4,49,30.14,10.0,Calm,Calm,-,N/A,,Clear,0,2012-11-04 18:35:00
12:55 PM,68.0,46.4,46,30.13,10.0,NE,3.5,-,N/A,,Clear,40,2012-11-04 18:55:00
1:15 PM,69.8,44.6,40,30.12,10.0,Calm,Calm,-,N/A,,Clear,0,2012-11-04 19:15:00
1:35 PM,71.6,46.4,41,30.10,10.0,Calm,Calm,-,N/A,,Clear,0,2012-11-04 19:35:00
1:55 PM,71.6,44.6,38,30.10,7.0,Calm,Calm,-,N/A,,Clear,0,2012-11-04 19:55:00
2:15 PM,71.6,44.6,38,30.09,10.0,Calm,Calm,-,N/A,,Clear,0,2012-11-04 20:15:00
2:35 PM,71.6,44.6,38,30.09,10.0,Calm,Calm,-,N/A,,Clear,0,2012-11-04 20:35:00
2:55 PM,71.6,44.6,38,30.08,10.0,North,4.6,-,N/A,,Clear,10,2012-11-04 20:55:00
3:15 PM,71.6,42.8,35,30.08,10.0,Calm,Calm,-,N/A,,Clear,0,2012-11-04 21:15:00
3:35 PM,71.6,42.8,35,30.08,10.0,Calm,Calm,-,N/A,,Scattered Clouds,0,2012-11-04 21:35:00
3:55 PM,71.6,44.6,38,30.07,10.0,Calm,Calm,-,N/A,,Clear,0,2012-11-04 21:55:00
4:15 PM,71.6,42.8,35,30.07,10.0,Calm,Calm,-,N/A,,Clear,0,2012-11-04 22:15:00
4:35 PM,71.6,44.6,38,30.07,10.0,North,3.5,-,N/A,,Clear,10,2012-11-04 22:35:00
4:55 PM,71.6,44.6,38,30.07,10.0,Calm,Calm,-,N/A,,Clear,0,2012-11-04 22:55:00
5:15 PM,68.0,44.6,43,30.07,10.0,Calm,Calm,-,N/A,,Clear,0,2012-11-04 23:15:00
5:35 PM,64.4,44.6,49,30.07,10.0,Calm,Calm,-,N/A,,Clear,0,2012-11-04 23:35:00
5:55 PM,62.6,44.6,52,30.08,10.0,Calm,Calm,-,N/A,,Clear,0,2012-11-04 23:55:00
6:15 PM,59.0,46.4,63,30.08,10.0,Calm,Calm,-,N/A,,Clear,0,2012-11-05 00:15:00
6:35 PM,59.0,46.4,63,30.08,10.0,Calm,Calm,-,N/A,,Clear,0,2012-11-05 00:35:00
6:55 PM,55.4,46.4,72,30.09,10.0,Calm,Calm,-,N/A,,Clear,0,2012-11-05 00:55:00
7:15 PM,57.2,46.4,67,30.09,10.0,Calm,Calm,-,N/A,,Clear,0,2012-11-05 01:15:00
7:35 PM,59.0,44.6,59,30.09,10.0,Calm,Calm,-,N/A,,Clear,0,2012-11-05 01:35:00
7:55 PM,53.6,46.4,77,30.09,10.0,Calm,Calm,-,N/A,,Clear,0,2012-11-05 01:55:00
8:15 PM,55.4,46.4,72,30.09,10.0,Calm,Calm,-,N/A,,Clear,0,2012-11-05 02:15:00
8:35 PM,51.8,44.6,76,30.10,10.0,Calm,Calm,-,N/A,,Clear,0,2012-11-05 02:35:00
8:55 PM,51.8,44.6,76,30.10,10.0,Calm,Calm,-,N/A,,Clear,0,2012-11-05 02:55:00
9:15 PM,51.8,44.6,76,30.10,10.0,Calm,Calm,-,N/A,,Clear,0,2012-11-05 03:15:00
9:35 PM,48.2,42.8,82,30.10,10.0,Calm,Calm,-,N/A,,Clear,0,2012-11-05 03:35:00
9:55 PM,50.0,44.6,82,30.10,10.0,Calm,Calm,-,N/A,,Clear,0,2012-11-05 03:55:00
10:15 PM,48.2,44.6,87,30.11,10.0,Calm,Calm,-,N/A,,Clear,0,2012-11-05 04:15:00
10:35 PM,48.2,44.6,87,30.11,10.0,Calm,Calm,-,N/A,,Clear,0,2012-11-05 04:35:00
10:55 PM,46.4,44.6,93,30.10,10.0,Calm,Calm,-,N/A,,Clear,0,2012-11-05 04:55:00